Вернуться в каталог

STARLINK-30535

АктивенСвязьVLEO
NORAD 58001·PAYLOAD·🇺🇸 United States

Запущен Oct 5, 2023 с Cape Canaveral Space Force Station

Loading…

Ближайшие Пролёты (ближайшие 24 часа)

TLE

СвежийSource: CelesTrak SupGP

Эпоха: Sep 14, 2026, 21:45 UTC

1 58001C 23153L   26257.90673611  .00054981  00000+0  19914-2 0  2572
2 58001  43.0011  78.1047 0001486 265.7714 279.4060 15.27551350    16

Отслеживайте STARLINK-30535 в реальном времени с AllMySat

Download on the App Store